| time (UTC) | temp F | wind direction | speed knots | gust knots | rain 1hr in | rain 24hr in | rain mn in | humidity % | barometer mb |
| 20260509091525 | 70 | 302 | 2.6 | 7.8 | 0.00 | 0.00 | 0.00 | 90 | 1005.9 |
| 20260509091022 | 70 | 14 | 1.7 | 11.3 | 0.00 | 0.00 | 0.00 | 90 | 1006.3 |
| 20260509090519 | 70 | 321 | 4.3 | 11.3 | 0.00 | 0.00 | 0.00 | 90 | 1006.4 |
| 20260509090017 | 70 | 340 | 3.5 | 6.1 | 0.00 | 0.00 | 0.00 | 90 | 1006.4 |
| 20260509085514 | 70 | 336 | 5.2 | 11.3 | 0.00 | 0.00 | 0.00 | 90 | 1006.6 |
| 20260509085010 | 70 | 332 | 6.1 | 8.7 | 0.00 | 0.00 | 0.00 | 89 | 1006.7 |
| 20260509084507 | 70 | 332 | 4.3 | 9.6 | 0.00 | 0.00 | 0.00 | 88 | 1007.0 |
| 20260509084004 | 70 | 333 | 3.5 | 10.4 | 0.00 | 0.00 | 0.00 | 88 | 1007.4 |
| 20260509083501 | 70 | 332 | 5.2 | 10.4 | 0.00 | 0.00 | 0.00 | 88 | 1007.7 |
| 20260509082957 | 70 | 339 | 7.0 | 9.6 | 0.00 | 0.00 | 0.00 | 88 | 1007.9 |
| 20260509082455 | 70 | 310 | 3.5 | 7.8 | 0.00 | 0.00 | 0.00 | 87 | 1008.0 |
| 20260509081952 | 70 | 336 | 9.6 | 10.4 | 0.00 | 0.00 | 0.00 | 87 | 1008.4 |
| 20260509081449 | 70 | 330 | 0.0 | 8.7 | 0.00 | 0.00 | 0.00 | 86 | 1008.5 |
| 20260509080946 | 71 | 342 | 4.3 | 6.1 | 0.00 | 0.00 | 0.00 | 86 | 1008.7 |
| 20260509080445 | 71 | 352 | 5.2 | 6.1 | 0.00 | 0.00 | 0.00 | 86 | 1008.7 |
| 20260509075942 | 71 | 327 | 1.7 | 5.2 | 0.00 | 0.00 | 0.00 | 86 | 1009.3 |
| 20260509075439 | 71 | 325 | 3.5 | 5.2 | 0.00 | 0.00 | 0.00 | 86 | 1009.3 |
| 20260509074937 | 71 | 297 | 1.7 | 4.3 | 0.00 | 0.00 | 0.00 | 86 | 1009.1 |
| 20260509074434 | 71 | 341 | 3.5 | 3.5 | 0.00 | 0.00 | 0.00 | 86 | 1009.4 |
| 20260509073930 | 71 | 0 | 2.6 | 3.5 | 0.00 | 0.00 | 0.00 | 86 | 1009.6 |
| 20260509073427 | 71 | 357 | 0.9 | 2.6 | 0.00 | 0.00 | 0.00 | 87 | 1009.7 |
| 20260509072924 | 71 | 11 | 1.7 | 2.6 | 0.00 | 0.00 | 0.00 | 86 | 1009.9 |
| 20260509072421 | 71 | 40 | 0.9 | 2.6 | 0.00 | 0.00 | 0.00 | 86 | 1009.7 |
| 20260509071917 | 71 | 17 | 0.9 | 2.6 | 0.00 | 0.00 | 0.00 | 87 | 1009.6 |
| 20260509071414 | 71 | 24 | 0.9 | 1.7 | 0.00 | 0.00 | 0.00 | 86 | 1009.9 |
| 20260509070912 | 70 | 19 | 1.7 | 1.7 | 0.00 | 0.00 | 0.00 | 86 | 1009.5 |
| 20260509070408 | 71 | 80 | 1.7 | 1.7 | 0.00 | 0.00 | 0.00 | 86 | 1009.5 |
| 20260509065903 | 71 | 25 | 0.9 | 2.6 | 0.00 | 0.00 | 0.00 | 86 | 1009.0 |
| 20260509065400 | 71 | 337 | 3.5 | 4.3 | 0.00 | 0.00 | 0.00 | 86 | 1008.9 |
| 20260509064856 | 71 | 16 | 1.7 | 5.2 | 0.00 | 0.00 | 0.00 | 86 | 1008.7 |
| 20260509064354 | 71 | 3 | 1.7 | 4.3 | 0.00 | 0.00 | 0.00 | 86 | 1009.0 |
| 20260509063852 | 71 | 353 | 2.6 | 4.3 | 0.00 | 0.00 | 0.00 | 86 | 1009.0 |
| 20260509063347 | 71 | 41 | 0.9 | 3.5 | 0.00 | 0.00 | 0.00 | 86 | 1009.1 |
| 20260509062845 | 71 | 356 | 1.7 | 5.2 | 0.00 | 0.00 | 0.00 | 85 | 1009.0 |
| 20260509062342 | 71 | 356 | 1.7 | 6.1 | 0.00 | 0.00 | 0.00 | 85 | 1009.1 |
| 20260509061839 | 71 | 347 | 3.5 | 5.2 | 0.00 | 0.00 | 0.00 | 85 | 1009.2 |
| 20260509061337 | 71 | 14 | 1.7 | 2.6 | 0.00 | 0.00 | 0.00 | 86 | 1009.6 |
| 20260509060834 | 71 | 22 | 1.7 | 2.6 | 0.00 | 0.00 | 0.00 | 85 | 1009.6 |
| 20260509060331 | 71 | 20 | 1.7 | 1.7 | 0.00 | 0.00 | 0.00 | 85 | 1009.6 |
| 20260509055826 | 72 | 103 | 0.9 | 2.6 | 0.00 | 0.00 | 0.00 | 86 | 1009.9 |
| 20260509055321 | 72 | 119 | 1.7 | 2.6 | 0.00 | 0.00 | 0.00 | 85 | 1009.7 |
| 20260509054819 | 72 | 9 | 2.6 | 5.2 | 0.00 | 0.00 | 0.00 | 85 | 1009.3 |
| 20260509054315 | 72 | 12 | 2.6 | 2.6 | 0.00 | 0.00 | 0.00 | 85 | 1009.7 |
| 20260509053814 | 72 | 10 | 0.9 | 1.7 | 0.00 | 0.00 | 0.00 | 83 | 1010.1 |
| 20260509053310 | 72 | 172 | 1.7 | 3.5 | 0.00 | 0.00 | 0.00 | 82 | 1010.2 |
| 20260509052809 | 72 | 173 | 1.7 | 2.6 | 0.00 | 0.00 | 0.00 | 81 | 1010.2 |
| 20260509052307 | 72 | 180 | 1.7 | 2.6 | 0.00 | 0.00 | 0.00 | 81 | 1010.4 |
| 20260509051804 | 72 | 242 | 1.7 | 2.6 | 0.00 | 0.00 | 0.00 | 80 | 1009.6 |
| 20260509051302 | 73 | 4 | 1.7 | 4.3 | 0.00 | 0.00 | 0.00 | 79 | 1009.3 |
| 20260509050758 | 73 | 354 | 2.6 | 8.7 | 0.00 | 0.00 | 0.00 | 79 | 1009.2 |
| 20260509050254 | 73 | 9 | 3.5 | 7.8 | 0.00 | 0.00 | 0.00 | 79 | 1009.2 |
| 20260509045752 | 73 | 338 | 2.6 | 6.1 | 0.00 | 0.02 | 0.02 | 79 | 1009.3 |
| 20260509045248 | 73 | 349 | 3.5 | 7.8 | 0.00 | 0.02 | 0.02 | 79 | 1008.9 |
| 20260509044746 | 73 | 351 | 3.5 | 8.7 | 0.00 | 0.02 | 0.02 | 79 | 1008.7 |
| 20260509044244 | 73 | 341 | 4.3 | 9.6 | 0.00 | 0.02 | 0.02 | 79 | 1008.5 |
| 20260509043739 | 72 | 358 | 4.3 | 7.0 | 0.00 | 0.02 | 0.02 | 78 | 1008.5 |
| 20260509043236 | 73 | 338 | 5.2 | 8.7 | 0.00 | 0.02 | 0.02 | 77 | 1008.3 |
| 20260509042732 | 73 | 335 | 3.5 | 6.1 | 0.00 | 0.02 | 0.02 | 77 | 1008.9 |
| 20260509042228 | 73 | 301 | 0.9 | 3.5 | 0.00 | 0.02 | 0.02 | 77 | 1009.3 |
| 20260509041725 | 73 | 235 | 0.0 | 0.9 | 0.00 | 0.02 | 0.02 | 77 | 1009.6 |
| 20260509041222 | 73 | 154 | 0.0 | 0.0 | 0.00 | 0.02 | 0.02 | 77 | 1009.7 |
| 20260509040721 | 73 | 123 | 1.7 | 1.7 | 0.00 | 0.02 | 0.02 | 77 | 1009.8 |
| 20260509040217 | 73 | 32 | 0.0 | 0.9 | 0.00 | 0.02 | 0.02 | 76 | 1009.6 |
| 20260509035714 | 73 | 297 | 0.0 | 0.9 | 0.00 | 0.02 | 0.02 | 76 | 1009.7 |
| 20260509035211 | 73 | 322 | 0.0 | 0.9 | 0.00 | 0.02 | 0.02 | 76 | 1009.9 |
| 20260509034708 | 73 | 212 | 0.0 | 1.7 | 0.00 | 0.02 | 0.02 | 76 | 1009.5 |
| 20260509034206 | 73 | 214 | 0.0 | 1.7 | 0.00 | 0.02 | 0.02 | 76 | 1009.6 |
| 20260509033702 | 73 | 319 | 1.7 | 3.5 | 0.00 | 0.02 | 0.02 | 76 | 1009.1 |
| 20260509033159 | 73 | 7 | 3.5 | 5.2 | 0.00 | 0.02 | 0.02 | 75 | 1009.0 |
| 20260509032657 | 73 | 3 | 2.6 | 3.5 | 0.00 | 0.02 | 0.02 | 75 | 1009.0 |
| 20260509032153 | 73 | 325 | 1.7 | 1.7 | 0.00 | 0.02 | 0.02 | 75 | 1009.1 |
| 20260509031651 | 73 | 347 | 0.0 | 3.5 | 0.00 | 0.02 | 0.02 | 75 | 1009.2 |
| 20260509031148 | 73 | 333 | 3.5 | 3.5 | 0.00 | 0.02 | 0.02 | 75 | 1009.0 |
| 20260509030646 | 73 | 339 | 2.6 | 2.6 | 0.00 | 0.02 | 0.02 | 75 | 1008.9 |
| 20260509030143 | 73 | 333 | 3.5 | 3.5 | 0.00 | 0.02 | 0.02 | 75 | 1009.1 |
| 20260509025639 | 73 | 338 | 4.3 | 7.0 | 0.00 | 0.02 | 0.02 | 75 | 1008.9 |
| 20260509025135 | 73 | 302 | 1.7 | 3.5 | 0.00 | 0.02 | 0.02 | 75 | 1008.8 |
| 20260509024630 | 73 | 349 | 2.6 | 7.0 | 0.00 | 0.02 | 0.02 | 75 | 1008.7 |
| 20260509024127 | 73 | 342 | 3.5 | 6.1 | 0.00 | 0.02 | 0.02 | 74 | 1008.5 |
| 20260509023625 | 73 | 322 | 1.7 | 6.1 | 0.00 | 0.02 | 0.02 | 74 | 1008.3 |
| 20260509023121 | 73 | 312 | 3.5 | 5.2 | 0.00 | 0.02 | 0.02 | 74 | 1008.2 |
| 20260509022618 | 73 | 357 | 3.5 | 3.5 | 0.00 | 0.02 | 0.02 | 74 | 1008.2 |
| 20260509022116 | 73 | 347 | 2.6 | 3.5 | 0.00 | 0.02 | 0.02 | 74 | 1008.3 |
| 20260509021612 | 73 | 234 | 0.0 | 4.3 | 0.00 | 0.02 | 0.02 | 74 | 1008.2 |
| 20260509021110 | 73 | 327 | 4.3 | 5.2 | 0.00 | 0.02 | 0.02 | 74 | 1008.2 |
| 20260509020608 | 73 | 8 | 2.6 | 4.3 | 0.00 | 0.02 | 0.02 | 74 | 1008.3 |
| 20260509020104 | 73 | 14 | 4.3 | 4.3 | 0.00 | 0.02 | 0.02 | 74 | 1008.1 |
| 20260509015604 | 73 | 51 | 1.7 | 2.6 | 0.00 | 0.02 | 0.02 | 74 | 1008.2 |
| 20260509015100 | 74 | 13 | 2.6 | 4.3 | 0.00 | 0.02 | 0.02 | 73 | 1008.2 |
| 20260509014556 | 74 | 11 | 1.7 | 4.3 | 0.00 | 0.02 | 0.02 | 73 | 1008.1 |
| 20260509014053 | 74 | 18 | 2.6 | 5.2 | 0.00 | 0.02 | 0.02 | 73 | 1008.0 |
| 20260509013550 | 73 | 351 | 2.6 | 3.5 | 0.00 | 0.02 | 0.02 | 73 | 1007.9 |
| 20260509013045 | 74 | 12 | 2.6 | 4.3 | 0.00 | 0.02 | 0.02 | 73 | 1007.9 |
| 20260509012542 | 74 | 6 | 3.5 | 5.2 | 0.00 | 0.02 | 0.02 | 73 | 1007.8 |
| 20260509012040 | 74 | 22 | 3.5 | 3.5 | 0.00 | 0.02 | 0.02 | 72 | 1007.7 |
| 20260509011537 | 74 | 349 | 3.5 | 4.3 | 0.00 | 0.02 | 0.02 | 72 | 1007.8 |
| 20260509011034 | 74 | 23 | 2.6 | 3.5 | 0.00 | 0.02 | 0.02 | 72 | 1007.7 |
| 20260509010532 | 74 | 347 | 1.7 | 3.5 | 0.00 | 0.02 | 0.02 | 72 | 1007.4 |
| 20260509010029 | 74 | 30 | 2.6 | 2.6 | 0.00 | 0.02 | 0.02 | 72 | 1007.5 |
| 20260509005526 | 74 | 19 | 1.7 | 2.6 | 0.00 | 0.02 | 0.02 | 72 | 1007.5 |
| 20260509005026 | 74 | 344 | 3.5 | 5.2 | 0.00 | 0.02 | 0.02 | 71 | 1007.4 |
| 20260509004524 | 74 | 4 | 1.7 | 4.3 | 0.00 | 0.02 | 0.02 | 71 | 1007.3 |
| 20260509004020 | 74 | 353 | 2.6 | 4.3 | 0.00 | 0.02 | 0.02 | 71 | 1007.4 |
| 20260509003519 | 74 | 4 | 3.5 | 4.3 | 0.00 | 0.02 | 0.02 | 71 | 1007.2 |
| 20260509003015 | 74 | 17 | 4.3 | 6.1 | 0.00 | 0.02 | 0.02 | 70 | 1007.4 |
| 20260509002513 | 74 | 345 | 3.5 | 4.3 | 0.00 | 0.02 | 0.02 | 70 | 1007.3 |
| 20260509002010 | 74 | 356 | 3.5 | 7.0 | 0.00 | 0.02 | 0.02 | 69 | 1007.4 |
| 20260509001507 | 75 | 347 | 7.0 | 7.8 | 0.00 | 0.02 | 0.02 | 68 | 1007.4 |
| 20260509001003 | 75 | 336 | 3.5 | 7.0 | 0.00 | 0.02 | 0.02 | 68 | 1007.5 |
| 20260509000502 | 75 | 348 | 1.7 | 7.0 | 0.00 | 0.02 | 0.02 | 68 | 1007.6 |
| 20260508235957 | 75 | 341 | 3.5 | 7.8 | 0.00 | 0.02 | 0.02 | 68 | 1007.7 |
| 20260508235455 | 75 | 11 | 4.3 | 7.0 | 0.00 | 0.02 | 0.02 | 68 | 1007.6 |
| 20260508234951 | 75 | 349 | 3.5 | 5.2 | 0.00 | 0.02 | 0.02 | 67 | 1007.6 |
| 20260508234448 | 76 | 7 | 2.6 | 3.5 | 0.00 | 0.02 | 0.02 | 66 | 1007.8 |
| 20260508233946 | 75 | 318 | 2.6 | 3.5 | 0.00 | 0.02 | 0.02 | 66 | 1007.8 |
| 20260508233445 | 75 | 117 | 1.7 | 4.3 | 0.00 | 0.02 | 0.02 | 66 | 1007.8 |
| 20260508232942 | 75 | 335 | 2.6 | 7.0 | 0.00 | 0.02 | 0.02 | 65 | 1007.8 |
| 20260508232439 | 76 | 288 | 2.6 | 7.0 | 0.00 | 0.02 | 0.02 | 64 | 1008.0 |
| 20260508231937 | 75 | 344 | 2.6 | 4.3 | 0.00 | 0.02 | 0.02 | 65 | 1007.8 |
| 20260508231434 | 75 | 30 | 4.3 | 6.1 | 0.00 | 0.02 | 0.02 | 66 | 1007.9 |
| 20260508230930 | 74 | 6 | 2.6 | 4.3 | 0.00 | 0.02 | 0.02 | 67 | 1008.2 |
| 20260508230426 | 74 | 357 | 5.2 | 8.7 | 0.00 | 0.02 | 0.02 | 67 | 1008.1 |
| 20260508225924 | 74 | 7 | 4.3 | 7.8 | 0.00 | 0.02 | 0.02 | 67 | 1008.3 |
| 20260508225420 | 75 | 359 | 5.2 | 8.7 | 0.00 | 0.02 | 0.02 | 67 | 1008.1 |
| 20260508224918 | 75 | 0 | 7.0 | 8.7 | 0.00 | 0.02 | 0.02 | 68 | 1008.1 |
| 20260508224416 | 75 | 13 | 4.3 | 7.0 | 0.00 | 0.02 | 0.02 | 70 | 1008.0 |
| 20260508223913 | 74 | 118 | 2.6 | 11.3 | 0.00 | 0.02 | 0.02 | 70 | 1007.9 |
| 20260508223411 | 74 | 23 | 5.2 | 11.3 | 0.00 | 0.02 | 0.02 | 68 | 1008.1 |
| 20260508222908 | 74 | 7 | 7.0 | 9.6 | 0.00 | 0.02 | 0.02 | 69 | 1008.1 |
| 20260508222405 | 74 | 53 | 3.5 | 10.4 | 0.00 | 0.02 | 0.02 | 72 | 1008.0 |
| 20260508221901 | 75 | 36 | 9.6 | 11.3 | 0.00 | 0.02 | 0.02 | 68 | 1007.9 |
| 20260508221357 | 77 | 82 | 3.5 | 5.2 | 0.00 | 0.02 | 0.02 | 67 | 1007.9 |
| 20260508220853 | 78 | 6 | 6.1 | 9.6 | 0.00 | 0.02 | 0.02 | 63 | 1007.7 |
| 20260508220350 | 78 | 56 | 4.3 | 6.1 | 0.00 | 0.02 | 0.02 | 64 | 1007.8 |
| 20260508215846 | 78 | 24 | 0.0 | 7.0 | 0.00 | 0.02 | 0.02 | 64 | 1008.0 |
| 20260508215343 | 78 | 61 | 7.0 | 8.7 | 0.00 | 0.02 | 0.02 | 62 | 1007.9 |
| 20260508214840 | 79 | 352 | 3.5 | 5.2 | 0.00 | 0.02 | 0.02 | 62 | 1007.6 |
| 20260508214337 | 79 | 349 | 3.5 | 6.1 | 0.00 | 0.02 | 0.02 | 60 | 1007.6 |
| 20260508213834 | 81 | 332 | 1.7 | 4.3 | 0.00 | 0.02 | 0.02 | 61 | 1007.6 |
| 20260508213331 | 79 | 212 | 0.0 | 3.5 | 0.00 | 0.02 | 0.02 | 64 | 1007.4 |
| 20260508212827 | 76 | 127 | 0.0 | 2.6 | 0.00 | 0.02 | 0.02 | 73 | 1007.5 |
| 20260508212323 | 73 | 211 | 1.7 | 4.3 | 0.00 | 0.02 | 0.02 | 75 | 1007.7 |
| 20260508211819 | 73 | 342 | 2.6 | 6.1 | 0.00 | 0.02 | 0.02 | 74 | 1008.5 |
| 20260508211314 | 73 | 10 | 1.7 | 7.0 | 0.00 | 0.02 | 0.02 | 74 | 1008.6 |
| 20260508210813 | 73 | 347 | 5.2 | 6.1 | 0.00 | 0.02 | 0.02 | 73 | 1008.8 |
| 20260508210309 | 73 | 341 | 2.6 | 5.2 | 0.00 | 0.02 | 0.02 | 74 | 1008.9 |
| 20260508205806 | 73 | 34 | 5.2 | 5.2 | 0.00 | 0.02 | 0.02 | 75 | 1009.4 |
| 20260508205305 | 73 | 23 | 4.3 | 7.8 | 0.00 | 0.02 | 0.02 | 72 | 1009.6 |
| 20260508204759 | 74 | 62 | 5.2 | 9.6 | 0.00 | 0.02 | 0.02 | 71 | 1009.7 |
| 20260508204255 | 74 | 33 | 3.5 | 7.8 | 0.00 | 0.02 | 0.02 | 70 | 1009.8 |
| 20260508203752 | 74 | 110 | 4.3 | 5.2 | 0.00 | 0.02 | 0.02 | 67 | 1009.6 |
| 20260508203248 | 74 | 36 | 1.7 | 4.3 | 0.00 | 0.02 | 0.02 | 66 | 1009.7 |
| 20260508202743 | 74 | 56 | 2.6 | 5.2 | 0.00 | 0.02 | 0.02 | 66 | 1009.7 |
| 20260508202241 | 74 | 52 | 2.6 | 5.2 | 0.00 | 0.02 | 0.02 | 66 | 1009.7 |
| 20260508201738 | 74 | 45 | 4.3 | 6.1 | 0.00 | 0.02 | 0.02 | 68 | 1009.8 |
| 20260508201235 | 75 | 129 | 1.7 | 7.0 | 0.00 | 0.02 | 0.02 | 65 | 1009.7 |
| 20260508200731 | 75 | 33 | 6.1 | 7.0 | 0.00 | 0.02 | 0.02 | 67 | 1009.5 |
| 20260508200228 | 75 | 66 | 3.5 | 7.8 | 0.00 | 0.02 | 0.02 | 68 | 1009.5 |
| 20260508195724 | 75 | 45 | 2.6 | 6.1 | 0.00 | 0.02 | 0.02 | 67 | 1009.6 |
| 20260508195220 | 76 | 44 | 6.1 | 8.7 | 0.00 | 0.02 | 0.02 | 65 | 1009.7 |
| 20260508194717 | 77 | 58 | 4.3 | 7.8 | 0.00 | 0.02 | 0.02 | 64 | 1009.7 |
| 20260508194214 | 77 | 32 | 5.2 | 8.7 | 0.00 | 0.02 | 0.02 | 65 | 1009.7 |
| 20260508193711 | 76 | 30 | 6.1 | 7.8 | 0.00 | 0.02 | 0.02 | 65 | 1009.7 |
| 20260508193208 | 76 | 6 | 4.3 | 7.8 | 0.00 | 0.02 | 0.02 | 66 | 1009.8 |
| 20260508192704 | 76 | 37 | 4.3 | 7.8 | 0.00 | 0.02 | 0.02 | 67 | 1010.1 |
| 20260508192202 | 76 | 42 | 4.3 | 9.6 | 0.00 | 0.02 | 0.02 | 65 | 1010.0 |
| 20260508191659 | 76 | 8 | 5.2 | 9.6 | 0.00 | 0.02 | 0.02 | 62 | 1009.9 |
| 20260508191155 | 76 | 71 | 6.1 | 9.6 | 0.00 | 0.02 | 0.02 | 63 | 1010.1 |
| 20260508190653 | 77 | 22 | 5.2 | 9.6 | 0.00 | 0.02 | 0.02 | 63 | 1010.4 |
| 20260508190149 | 78 | 33 | 7.8 | 8.7 | 0.00 | 0.02 | 0.02 | 59 | 1010.0 |
| 20260508185646 | 79 | 21 | 1.7 | 8.7 | 0.00 | 0.02 | 0.02 | 56 | 1010.1 |
| 20260508185143 | 78 | 301 | 2.6 | 6.1 | 0.00 | 0.02 | 0.02 | 59 | 1010.3 |
| 20260508184640 | 78 | 108 | 2.6 | 4.3 | 0.00 | 0.02 | 0.02 | 59 | 1010.2 |
| 20260508184137 | 78 | 22 | 10.4 | 12.2 | 0.00 | 0.02 | 0.02 | 59 | 1010.4 |
| 20260508183634 | 77 | 67 | 1.7 | 6.1 | 0.00 | 0.02 | 0.02 | 60 | 1010.3 |
| 20260508183130 | 77 | 127 | 5.2 | 7.8 | 0.00 | 0.02 | 0.02 | 58 | 1010.3 |
| 20260508182626 | 78 | 33 | 3.5 | 7.0 | 0.00 | 0.02 | 0.02 | 60 | 1010.7 |
| 20260508182123 | 79 | 98 | 3.5 | 5.2 | 0.00 | 0.02 | 0.02 | 57 | 1010.3 |
| 20260508181618 | 79 | 60 | 3.5 | 7.8 | 0.00 | 0.02 | 0.02 | 55 | 1010.5 |
| 20260508181116 | 79 | 352 | 1.7 | 3.5 | 0.00 | 0.02 | 0.02 | 55 | 1010.7 |
| 20260508180613 | 76 | 93 | 1.7 | 4.3 | 0.00 | 0.02 | 0.02 | 59 | 1010.7 |
| 20260508180109 | 78 | 66 | 5.2 | 7.8 | 0.00 | 0.02 | 0.02 | 59 | 1010.9 |
| 20260508175606 | 77 | 356 | 4.3 | 6.1 | 0.00 | 0.02 | 0.02 | 56 | 1011.3 |
| 20260508175103 | 78 | 320 | 3.5 | 3.5 | 0.00 | 0.02 | 0.02 | 56 | 1011.0 |
| 20260508174600 | 77 | 344 | 5.2 | 7.8 | 0.00 | 0.02 | 0.02 | 56 | 1011.3 |
| 20260508174057 | 77 | 341 | 5.2 | 5.2 | 0.00 | 0.02 | 0.02 | 57 | 1011.4 |
| 20260508173554 | 77 | 320 | 0.0 | 4.3 | 0.00 | 0.02 | 0.02 | 56 | 1011.3 |
| 20260508173050 | 77 | 354 | 2.6 | 3.5 | 0.00 | 0.02 | 0.02 | 56 | 1011.5 |
| 20260508172548 | 76 | 349 | 3.5 | 5.2 | 0.00 | 0.02 | 0.02 | 58 | 1011.4 |
| 20260508172044 | 75 | 18 | 4.3 | 4.3 | 0.00 | 0.02 | 0.02 | 61 | 1011.6 |
| 20260508171541 | 75 | 5 | 1.7 | 7.0 | 0.00 | 0.02 | 0.02 | 61 | 1011.6 |
| 20260508171037 | 75 | 124 | 1.7 | 7.8 | 0.00 | 0.02 | 0.02 | 62 | 1011.8 |
| 20260508170535 | 76 | 48 | 1.7 | 7.0 | 0.00 | 0.02 | 0.02 | 59 | 1012.0 |
| 20260508170032 | 76 | 2 | 1.7 | 6.1 | 0.00 | 0.02 | 0.02 | 57 | 1012.0 |
| 20260508165529 | 75 | 353 | 4.3 | 5.2 | 0.00 | 0.02 | 0.02 | 59 | 1012.4 |
| 20260508165026 | 75 | 339 | 4.3 | 6.1 | 0.00 | 0.02 | 0.02 | 57 | 1012.4 |
| 20260508164522 | 75 | 311 | 1.7 | 6.1 | 0.00 | 0.02 | 0.02 | 58 | 1012.3 |
| 20260508164019 | 74 | 345 | 2.6 | 4.3 | 0.00 | 0.02 | 0.02 | 58 | 1012.7 |
| 20260508163516 | 75 | 66 | 0.9 | 5.2 | 0.00 | 0.02 | 0.02 | 59 | 1012.9 |
| 20260508163013 | 74 | 328 | 5.2 | 7.0 | 0.00 | 0.02 | 0.02 | 60 | 1012.9 |
| 20260508162510 | 73 | 334 | 4.3 | 7.0 | 0.00 | 0.02 | 0.02 | 60 | 1012.9 |
| 20260508162007 | 73 | 346 | 3.5 | 7.0 | 0.00 | 0.02 | 0.02 | 59 | 1012.9 |
| 20260508161504 | 72 | 25 | 2.6 | 4.3 | 0.00 | 0.02 | 0.02 | 61 | 1012.9 |
| 20260508161001 | 72 | 253 | 1.7 | 5.2 | 0.00 | 0.02 | 0.02 | 62 | 1013.1 |
| 20260508160500 | 71 | 2 | 6.1 | 8.7 | 0.00 | 0.02 | 0.02 | 61 | 1013.1 |
| 20260508155955 | 72 | 31 | 5.2 | 8.7 | 0.00 | 0.02 | 0.02 | 61 | 1013.1 |
| 20260508155453 | 71 | 328 | 1.7 | 7.8 | 0.00 | 0.02 | 0.02 | 62 | 1013.2 |
| 20260508154949 | 70 | 15 | 4.3 | 9.6 | 0.00 | 0.02 | 0.02 | 62 | 1013.4 |
| 20260508154447 | 71 | 22 | 6.1 | 8.7 | 0.00 | 0.02 | 0.02 | 62 | 1013.6 |
| 20260508153943 | 71 | 0 | 5.2 | 7.8 | 0.00 | 0.02 | 0.02 | 61 | 1013.5 |
| 20260508153441 | 70 | 0 | 3.5 | 6.1 | 0.00 | 0.02 | 0.02 | 63 | 1013.4 |
| 20260508152937 | 70 | 30 | 5.2 | 7.0 | 0.00 | 0.02 | 0.02 | 65 | 1013.6 |
| 20260508152434 | 70 | 36 | 4.3 | 7.0 | 0.00 | 0.02 | 0.02 | 64 | 1013.5 |
| 20260508151930 | 70 | 12 | 5.2 | 7.0 | 0.00 | 0.02 | 0.02 | 63 | 1013.5 |
| 20260508151427 | 70 | 347 | 3.5 | 9.6 | 0.00 | 0.02 | 0.02 | 63 | 1013.5 |
| 20260508150923 | 70 | 350 | 7.0 | 8.7 | 0.00 | 0.02 | 0.02 | 62 | 1013.7 |
| 20260508150420 | 70 | 28 | 3.5 | 9.6 | 0.00 | 0.02 | 0.02 | 63 | 1013.6 |
| 20260508145916 | 70 | 350 | 5.2 | 7.0 | 0.00 | 0.02 | 0.02 | 62 | 1013.6 |
| 20260508145412 | 71 | 323 | 5.2 | 7.0 | 0.00 | 0.02 | 0.02 | 61 | 1013.5 |
| 20260508144909 | 72 | 326 | 3.5 | 5.2 | 0.00 | 0.02 | 0.02 | 60 | 1013.1 |
| 20260508144407 | 71 | 59 | 0.0 | 7.8 | 0.00 | 0.02 | 0.02 | 62 | 1013.4 |
| 20260508143904 | 70 | 345 | 3.5 | 5.2 | 0.00 | 0.02 | 0.02 | 64 | 1013.1 |
| 20260508143402 | 69 | 182 | 1.7 | 7.8 | 0.00 | 0.02 | 0.02 | 64 | 1013.2 |
| 20260508142858 | 70 | 340 | 4.3 | 7.8 | 0.00 | 0.02 | 0.02 | 63 | 1013.6 |
| 20260508142355 | 70 | 193 | 1.7 | 4.3 | 0.00 | 0.02 | 0.02 | 64 | 1013.6 |
| 20260508141851 | 70 | 337 | 6.1 | 9.6 | 0.00 | 0.02 | 0.02 | 63 | 1013.8 |
| 20260508141348 | 69 | 354 | 4.3 | 12.2 | 0.00 | 0.02 | 0.02 | 64 | 1013.9 |
| 20260508140846 | 69 | 318 | 3.5 | 4.3 | 0.00 | 0.02 | 0.02 | 64 | 1013.8 |
| 20260508140343 | 69 | 217 | 0.9 | 7.8 | 0.00 | 0.02 | 0.02 | 64 | 1013.7 |
| 20260508135838 | 68 | 29 | 0.9 | 4.3 | 0.00 | 0.02 | 0.02 | 67 | 1013.9 |
| 20260508135335 | 68 | 337 | 3.5 | 7.0 | 0.00 | 0.02 | 0.02 | 66 | 1013.9 |
| 20260508134831 | 68 | 341 | 3.5 | 6.1 | 0.00 | 0.02 | 0.02 | 67 | 1013.7 |
| 20260508134328 | 68 | 328 | 3.5 | 7.0 | 0.00 | 0.02 | 0.02 | 68 | 1013.5 |
| 20260508133824 | 67 | 304 | 6.1 | 7.8 | 0.00 | 0.02 | 0.02 | 68 | 1013.9 |
| 20260508133323 | 67 | 93 | 1.7 | 3.5 | 0.00 | 0.02 | 0.02 | 71 | 1013.5 |
| 20260508132819 | 67 | 161 | 1.7 | 7.8 | 0.00 | 0.02 | 0.02 | 71 | 1013.7 |
| 20260508132317 | 66 | 91 | 0.9 | 4.3 | 0.00 | 0.02 | 0.02 | 72 | 1013.8 |
| 20260508131813 | 65 | 315 | 1.7 | 3.5 | 0.00 | 0.02 | 0.02 | 76 | 1013.9 |
| 20260508131309 | 64 | 199 | 0.9 | 2.6 | 0.00 | 0.02 | 0.02 | 78 | 1013.8 |
| 20260508130806 | 64 | 91 | 0.9 | 1.7 | 0.00 | 0.02 | 0.02 | 78 | 1013.9 |
| 20260508130303 | 63 | 337 | 0.0 | 2.6 | 0.00 | 0.02 | 0.02 | 80 | 1014.0 |
| 20260508125759 | 63 | 181 | 0.9 | 1.7 | 0.00 | 0.02 | 0.02 | 82 | 1014.2 |
| 20260508125255 | 62 | 212 | 0.0 | 1.7 | 0.00 | 0.02 | 0.02 | 82 | 1013.9 |
| 20260508124754 | 62 | 212 | 0.0 | 0.9 | 0.00 | 0.02 | 0.02 | 81 | 1014.3 |
| 20260508124250 | 62 | 240 | 0.0 | 0.9 | 0.00 | 0.02 | 0.02 | 81 | 1014.2 |
| 20260508123749 | 62 | 150 | 0.0 | 1.7 | 0.00 | 0.02 | 0.02 | 81 | 1014.2 |
| 20260508123246 | 62 | 218 | 0.9 | 1.7 | 0.00 | 0.02 | 0.02 | 81 | 1013.7 |
| 20260508122742 | 62 | 63 | 1.7 | 2.6 | 0.00 | 0.02 | 0.02 | 80 | 1013.8 |
| 20260508122239 | 62 | 339 | 0.9 | 2.6 | 0.00 | 0.02 | 0.02 | 81 | 1013.9 |
| 20260508121737 | 62 | 19 | 0.9 | 3.5 | 0.00 | 0.02 | 0.02 | 81 | 1013.9 |
| 20260508121235 | 62 | 22 | 0.9 | 4.3 | 0.00 | 0.02 | 0.02 | 81 | 1014.1 |
| 20260508120732 | 62 | 297 | 2.6 | 3.5 | 0.00 | 0.02 | 0.02 | 82 | 1014.2 |
| 20260508120231 | 61 | 122 | 1.7 | 3.5 | 0.00 | 0.02 | 0.02 | 83 | 1013.7 |
| 20260508115727 | 61 | 333 | 2.6 | 4.3 | 0.00 | 0.02 | 0.02 | 83 | 1014.0 |
| 20260508115225 | 61 | 3 | 2.6 | 5.2 | 0.00 | 0.02 | 0.02 | 84 | 1013.7 |
| 20260508114721 | 61 | 298 | 2.6 | 4.3 | 0.00 | 0.02 | 0.02 | 85 | 1014.0 |
| 20260508114218 | 61 | 110 | 0.9 | 3.5 | 0.00 | 0.02 | 0.02 | 84 | 1014.0 |
| 20260508113714 | 62 | 318 | 1.7 | 3.5 | 0.00 | 0.02 | 0.02 | 83 | 1014.1 |
| 20260508113213 | 61 | 89 | 0.9 | 1.7 | 0.00 | 0.02 | 0.02 | 84 | 1014.3 |
| 20260508112709 | 61 | 59 | 0.0 | 1.7 | 0.00 | 0.02 | 0.02 | 84 | 1014.6 |
| 20260508112206 | 61 | 20 | 1.7 | 1.7 | 0.00 | 0.02 | 0.02 | 85 | 1014.2 |
| 20260508111703 | 62 | 60 | 0.0 | 1.7 | 0.00 | 0.02 | 0.02 | 84 | 1014.7 |
| 20260508111200 | 62 | 269 | 0.0 | 1.7 | 0.00 | 0.02 | 0.02 | 82 | 1014.9 |
| 20260508110657 | 62 | 168 | 0.0 | 2.6 | 0.00 | 0.02 | 0.02 | 82 | 1015.0 |
| 20260508110154 | 62 | 197 | 1.7 | 1.7 | 0.00 | 0.02 | 0.02 | 82 | 1014.6 |
| 20260508105649 | 61 | 89 | 0.0 | 1.7 | 0.00 | 0.02 | 0.02 | 81 | 1014.1 |
| 20260508105146 | 61 | 17 | 3.5 | 3.5 | 0.00 | 0.02 | 0.02 | 81 | 1014.0 |
| 20260508104643 | 61 | 37 | 0.9 | 1.7 | 0.00 | 0.02 | 0.02 | 82 | 1013.6 |
| 20260508104140 | 61 | 1 | 2.6 | 3.5 | 0.00 | 0.02 | 0.02 | 82 | 1013.4 |
| 20260508103637 | 61 | 24 | 1.7 | 2.6 | 0.00 | 0.02 | 0.02 | 82 | 1013.2 |
| 20260508103134 | 61 | 327 | 3.5 | 3.5 | 0.00 | 0.02 | 0.02 | 82 | 1013.0 |
| 20260508102631 | 61 | 336 | 2.6 | 3.5 | 0.00 | 0.02 | 0.02 | 82 | 1012.8 |
| 20260508102130 | 61 | 343 | 4.3 | 6.1 | 0.00 | 0.02 | 0.02 | 83 | 1012.8 |
| 20260508101627 | 61 | 346 | 3.5 | 6.1 | 0.00 | 0.02 | 0.02 | 84 | 1012.9 |
| 20260508101124 | 61 | 335 | 2.6 | 7.0 | 0.00 | 0.02 | 0.02 | 85 | 1012.8 |
| 20260508100621 | 61 | 325 | 1.7 | 4.3 | 0.00 | 0.02 | 0.02 | 86 | 1012.8 |
| 20260508100119 | 61 | 334 | 1.7 | 4.3 | 0.00 | 0.02 | 0.02 | 85 | 1013.4 |
| 20260508095615 | 61 | 338 | 1.7 | 2.6 | 0.00 | 0.02 | 0.02 | 85 | 1013.0 |
| 20260508095113 | 61 | 36 | 0.0 | 4.3 | 0.00 | 0.02 | 0.02 | 85 | 1013.2 |
| 20260508094610 | 61 | 341 | 2.6 | 4.3 | 0.00 | 0.02 | 0.02 | 85 | 1013.1 |
| 20260508094106 | 61 | 0 | 1.7 | 2.6 | 0.00 | 0.02 | 0.02 | 85 | 1013.0 |
| 20260508093604 | 61 | 347 | 1.7 | 3.5 | 0.00 | 0.02 | 0.02 | 85 | 1013.1 |
| 20260508093101 | 61 | 313 | 2.6 | 2.6 | 0.00 | 0.02 | 0.02 | 86 | 1013.2 |
| 20260508092558 | 61 | 344 | 1.7 | 2.6 | 0.00 | 0.02 | 0.02 | 86 | 1013.1 |
| 20260508092057 | 61 | 358 | 1.7 | 3.5 | 0.00 | 0.02 | 0.02 | 86 | 1013.1 |